Regional Weather Roundup
Issued by NWS

Home | Current Version | Previous Version | Graphics & Text | Print | Product List | Glossary On
Versions: 1 2 3 4 5 6 7 8 9 10 11 12 13 14 15 16 17 18 19 20 21 22 23 24 25 26 27 28 29 30 31 32 33 34 35 36 37 38 39 40 41 42 43 44 45 46 47 48 49 50
000
ASUS43 KLOT 121903
RWRIL

ILLINOIS REGIONAL WEATHER ROUNDUP
NATIONAL WEATHER SERVICE CHICAGO/ROMEOVILLE IL
100 PM CST TUE DEC 12 2017

NOTE: "FAIR" INDICATES FEW OR NO CLOUDS BELOW 12,000 FEET WITH NO
SIGNIFICANT WEATHER AND/OR OBSTRUCTIONS TO VISIBILITY.

* THESE STATIONS ARE NOT UNDER NWS QUALITY CONTROL. THEY ALSO MAY NOT
  REPORT WEATHER SUCH AS PRECIPITATION OR FOG.

ILZ001-002-007-009-015-016-024-122000-
NORTHWEST ILLINOIS

CITY           SKY/WX    TMP DP  RH WIND       PRES   REMARKS
MOLINE         SUNNY     28   6  39 NW13      30.13F WCI  17
STERLING*      MOSUNNY   25  12  58 NW13      30.12F WCI  14
SAVANNA*       SUNNY     21   9  60 NW10      30.13S WCI  10
$$

ILZ003-004-008-010-011-017-018-122000-
NORTH CENTRAL ILLINOIS

CITY           SKY/WX    TMP DP  RH WIND       PRES   REMARKS
ROCKFORD       MOSUNNY   20   8  60 W12       30.10F WCI   8
FREEPORT*      SUNNY     19   7  58 W13G18    30.10F WCI   6
ROCHELLE*      MOSUNNY   19   8  64 W14       30.09F WCI   5
DE KALB*       MOSUNNY   19  11  71 W17       30.07F WCI   3
PERU*          SUNNY     21  11  65 NW15      30.11F WCI   8
$$

ILZ005-006-012>014-019>023-122000-
NORTHEAST ILLINOIS

CITY           SKY/WX    TMP DP  RH WIND       PRES   REMARKS
CHICAGO-OHARE  MOSUNNY   21   7  54 NW14G21   30.04F WCI   8
CHICAGO-MIDWAY MOSUNNY   22   8  55 NW14G22   30.06F WCI   9
AURORA         MOSUNNY   20  11  68 W15       30.08F WCI   6
LANSING*       SUNNY     22   8  55 NW10G16   30.05F WCI  12
WAUKEGAN       MOSUNNY   20   5  52 NW9G21    30.03F WCI   9
DUPAGE AIRPORT SUNNY     20  11  68 NW14      30.05F WCI   7
KANKAKEE*      SUNNY     24   8  49 NW14      30.08S WCI  12
WHEELING       SUNNY     22   7  52 NW15      30.06F WCI   9
ROMEOVILLE*    MOSUNNY   21  11  65 NW13      30.07F WCI   9
NORTHERLY ISL    N/A     23   8  52 W10         N/A  WCI  13
$$

LMZ740>746-122000-
SOUTHERN LAKE MICHIGAN

STATION/POSITION SKY/WX   TEMP    WIND        PRES    VSBY  WAVE
                          AIR SEA DIR/SP/G                  HT/PER
                          (F)     (DEG/KT/KT) (MB)    (MI)  (FT/S)
HARRISON CRIB              21     310/ 14/ 18   N/A
BURNHAM HARBOR             22     300/ 11/ 17   N/A
CALUMET HARBOR             21     250/  9/ 18 1017.1F
BURNS HARBOR               21     310/ 15/ 23 1017.6S
MICHIGAN CITY              22     280/ 26/ 28   N/A
$$

ILZ025>027-034>036-040-047-049-050-058-095>099-122000-
WEST-CENTRAL ILLINOIS

CITY           SKY/WX    TMP DP  RH WIND       PRES   REMARKS
QUINCY         SUNNY     29   2  31 W13       30.17F WCI  19
GALESBURG*     SUNNY     28   8  43 W16       30.14F WCI  15
MACOMB*        SUNNY     29   4  34 W16G22    30.18F WCI  17
JACKSONVILLE*  MOSUNNY   30   2  29 NW15G23   30.16F WCI  19
PITTSFIELD*    SUNNY     32   1  27 NW18G32   30.18F WCI  20
$$

ILZ028>032-037-038-041>044-048-051>054-059>061-122000-
CENTRAL ILLINOIS

CITY           SKY/WX    TMP DP  RH WIND       PRES   REMARKS
BLOOMINGTON    SUNNY     26   8  46 NW20      30.10F WCI  12
DECATUR        SUNNY     28   4  35 NW16      30.12F WCI  16
PEORIA         SUNNY     28   4  35 NW12G20   30.13F WCI  18
LACON*         SUNNY     26   6  41 NW13      30.12F WCI  15
LINCOLN*       SUNNY     30  10  42 W13       30.14S WCI  20
SPRINGFIELD    SUNNY     31   7  36 NW14G24   30.15F WCI  21
TAYLORVILLE    SUNNY     30   6  35 NW20      30.14F WCI  18
$$

ILZ033-039-045-046-055>057-062-063-122000-
EAST-CENTRAL ILLINOIS

CITY           SKY/WX    TMP DP  RH WIND       PRES   REMARKS
CHAMPAIGN      SUNNY     27   9  46 NW20G26   30.09F WCI  13
DANVILLE*      SUNNY     26   9  48 NW16      30.05F WCI  14
MATTOON        SUNNY     29  10  45 NW17G25   30.09F WCI  17
PARIS*         SUNNY     28  10  48 NW17      30.10F WCI  15
$$

ILZ079-100>102-122000-
SOUTHWEST ILLINOIS

CITY           SKY/WX    TMP DP  RH WIND       PRES   REMARKS
ALTON          MOSUNNY   34   9  35 NW15G23   30.18F WCI  24
BELLEVILLE     SUNNY     36   7  30 NW14G20   30.16F WCI  27
CAHOKIA*       SUNNY     36   6  28 NW17G23   30.19F WCI  26
SPARTA*        SUNNY     34  14  43 NW13      30.18F WCI  25
$$

ILZ064>066-069>071-074>076-080>082-084>086-088>090-092>094-122000-
SOUTH-CENTRAL ILLINOIS

CITY           SKY/WX    TMP DP  RH WIND       PRES   REMARKS
CARBONDALE     SUNNY     36  13  38 NW13G23   30.17F WCI  27
CAIRO*         SUNNY     39  14  36 W15G21    30.18F WCI  30
EFFINGHAM*     SUNNY     32  11  43 W14G21    30.14F WCI  22
MARION         MOSUNNY   36   9  32 NW9G21    30.17F WCI  29
MT. VERNON     SUNNY     33   5  30 VRB6G21   30.15F WCI  28
CENTRALIA*     SUNNY     33  11  39 W17       30.14F WCI  22
SALEM*         SUNNY     34   6  31 NW13      30.14F WCI  25
METROPOLIS*    SUNNY     38  11  33 NW10G17   30.17F WCI  31
$$

ILZ067-068-072-073-078-083-087-091-122000-
SOUTHEAST ILLINOIS

CITY           SKY/WX    TMP DP  RH WIND       PRES   REMARKS
LAWRENCEVILLE  SUNNY     32  11  41 NW20      30.11F WCI  20
FLORA*         MOSUNNY   33  12  43 NW15G23   30.13F WCI  22
ROBINSON*      SUNNY     30  10  43 NW15G26   30.12F WCI  19
CARMI*         SUNNY     34  11  38 NW17G28   30.13F WCI  23
$$

ABBREVIATIONS USED IN REMARKS
   TC - TEMPERATURE IN CELSIUS
  WCI - WIND CHILL INDEX
   HX - HEAT INDEX
  VSB - VISIBILITY
$$





USA.gov is the U.S. government's official web portal to all federal, state and local government web resources and services.